Regional Weather Roundup
Issued by NWS

Home | Current Version | Previous Version | Graphics & Text | Print | Product List | Glossary Off
Versions: 1 2 3 4 5 6 7 8 9 10 11 12 13 14 15 16 17 18 19 20 21 22 23 24 25 26 27 28 29 30 31 32 33 34 35 36 37 38 39 40 41 42 43 44 45 46 47 48 49 50

000
ASUS43 KDMX 261308
RWRIA

WEATHER ROUNDUP FOR IOWA
NATIONAL WEATHER SERVICE DES MOINES IA
800 AM CDT TUE JUL 26 2016

NOTE: "FAIR" INDICATES FEW OR NO CLOUDS BELOW 12,000 FEET WITH NO
SIGNIFICANT WEATHER AND/OR OBSTRUCTIONS TO VISIBILITY.

* - THESE STATIONS ARE NOT NWS STATIONS...THUS NOT UNDER NWS
QUALITY CONTROL.  THEY ALSO DO NOT REPORT WEATHER SUCH
AS PRECIPITATION OR FOG.

IAZ001>003-012>014-020>022-031>034-043>046-261400-
   NORTHWEST IOWA

CITY           SKY/WX    TMP DP  RH WIND       PRES   REMARKS
CARROLL *      SUNNY     68  66  94 CALM      30.10S
CHEROKEE *     MOSUNNY   66  65  99 CALM      30.09S
DENISON *      SUNNY     66  64  94 CALM      30.08F
LE MARS *      SUNNY     70  66  88 SE3       30.08F
SHELDON *      SUNNY     70  66  88 CALM      30.07F
SIOUX CITY     SUNNY     68  64  87 SE5       30.07S
SPENCER        SUNNY     69  65  86 SW3       30.09S
STORM LAKE *   SUNNY     70  64  83 SW5       30.11S
$$

IAZ055>058-069>071-079>083-090>094-261400-
   SOUTHWEST IOWA

CITY           SKY/WX    TMP DP  RH WIND       PRES   REMARKS
ATLANTIC *     SUNNY     64  64 100 CALM      30.10S FOG
CLARINDA *       N/A     68  64  88 MISG      30.12S
COUNCIL BLFS * SUNNY     70  66  88 SE6       30.09F
CRESTON *      SUNNY     72  66  83 CALM      30.12S
HARLAN  *      SUNNY     66  64  94 CALM      30.13S
LAMONI         SUNNY     69  65  86 N3        30.10R
RED OAK *      SUNNY     68  66  94 CALM      30.10S
SHENANDOAH *   SUNNY     66  66 100 CALM      30.10S
$$

IAZ047>049-059>061-072>074-084-261400-
   CENTRAL IOWA

CITY           SKY/WX    TMP DP  RH WIND       PRES   REMARKS
AMES           SUNNY     71  68  90 CALM      30.09S
ANKENY *         N/A    N/A N/A N/A MISG        N/A
BOONE *        SUNNY     72  66  83 CALM      30.09S
CHARITON *       N/A    N/A N/A N/A MISG        N/A
DES MOINES     SUNNY     73  68  84 W3        30.09R
GRINNELL*      SUNNY     71  65  84 CALM      30.09S
KNOXVILLE *    SUNNY     72  66  83 CALM      30.08R
MARSHALLTOWN   SUNNY     70  67  90 CALM      30.09S
NEWTON *       SUNNY     70  66  88 E5        30.08S
PELLA *        SUNNY     73  64  75 CALM      30.09
PERRY *          N/A     69  68  99 CALM      30.10S
$$

IAZ004>006-015-016-023>025-035-036-261400-
   NORTH CENTRAL IOWA

CITY           SKY/WX    TMP DP  RH WIND       PRES   REMARKS
ALGONA *       SUNNY     70  66  88 S6        30.10S
ESTHERVILLE    SUNNY     70  66  87 SW5       30.09R
FORT DODGE *   SUNNY     70  66  88 CALM      30.11S
MASON CITY     SUNNY     73  66  78 S3        30.12R
FOREST CITY *    N/A     66  66 100 CALM      30.11R
IOWA FALLS *     N/A     72  66  83 CALM      30.11S
$$

IAZ007>011-017>019-026>030-037>042-050>054-066-261400-
   NORTHEAST IOWA

CITY           SKY/WX    TMP DP  RH WIND       PRES   REMARKS
CEDAR RAPIDS   SUNNY     71  68  90 CALM      30.08F
CHARLES CITY * SUNNY     70  68  94 CALM      30.11S
CLINTON *      SUNNY     73  68  84 NE6       30.08S
DECORAH *      SUNNY     68  66  94 CALM      30.09S
DUBUQUE        SUNNY     72  65  78 MISG      30.10S
MONTICELLO *   SUNNY     70  66  88 CALM      30.09S
WATERLOO       SUNNY     70  66  87 CALM      30.08F
$$

IAZ064-065-067-068-078-261400-
   EAST CENTRAL IOWA

CITY           SKY/WX    TMP DP  RH WIND       PRES   REMARKS
DAVENPORT      MOSUNNY   73  67  81 N3        30.08F
IOWA CITY      SUNNY     75  66  73 NE5       30.09F
MT. PLEASANT *   N/A     73  70  92 N3        30.08S
MUSCATINE *    SUNNY     72  66  83 CALM      30.08S
QUAD CITIES    SUNNY     75  66  73 CALM      30.07S
$$

IAZ062-063-075>077-085>089-095>099-261400-
   SOUTHEAST IOWA

CITY           SKY/WX    TMP DP  RH WIND       PRES   REMARKS
BURLINGTON     SUNNY     75  67  76 NE5       30.07R
FAIRFIELD *    SUNNY     72  66  83 NE6       30.08S HAZE
KEOKUK *       SUNNY     73  68  83 CALM      30.07R
OSKALOOSA *      N/A     69  65  89 E5        30.08
CENTERVILLE *    N/A     70  66  88 CALM      30.10S
OTTUMWA        SUNNY     71  64  78 NE5       30.07F
WASHINGTON *   SUNNY     72  68  88 NE5       30.09F
$$

ABBREVIATIONS USED IN REMARKS
   TC - TEMPERATURES IN CELSIUS
  WCI - WIND CHILL INDEX
   HX - HEAT INDEX
  VSB - VISIBILITY
$$





USA.gov is the U.S. government's official web portal to all federal, state and local government web resources and services.